Change the Weather History Date:

Monday, October 10, 2011

  Actual Average Record
Temperature  
Mean Temperature 58 °F -  
Max Temperature 75 °F 55 °F 84 °F (1928)
Min Temperature 40 °F 33 °F 17 °F (1964)
Degree Days  
Heating Degree Days 8    
Growing Degree Days 8 (Base 50)    
Moisture  
Dew Point 48 °F    
Average Humidity 71    
Maximum Humidity 97    
Minimum Humidity 40    
Precipitation  
Precipitation 0.00 in - - ()
Sea Level Pressure  
Sea Level Pressure 30.13 in    
Wind  
Wind Speed 3 mph (SSE)    
Max Wind Speed 13 mph    
Max Gust Speed 20 mph    
Visibility 9 miles    
Events Fog    
Averages and records for this station are not official NWS values.
T = Trace of Precipitation, MM = Missing Value Source: NWS Daily Summary

Daily Weather History Graph

Daily Weather History Graph

Search for Another Location

Airport or City:

Trip Planner

Search our weather history database for the weather conditions in past years. The results will help you decide how hot, cold, wet, or windy it might be!

Date:

Astronomy

Oct. 10, 2011 Rise Set
Actual Time 7:07 AM CDT 6:23 PM CDT
Civil Twilight 6:38 AM CDT 6:52 PM CDT
Nautical Twilight 6:04 AM CDT 7:26 PM CDT
Astronomical Twilight 5:30 AM CDT 8:00 PM CDT
Moon 5:26 PM CDT (10/10) 5:48 AM CDT (10/10)
Length of Visible Light 12h 14m
Length of Day
11h 15m
Waxing Gibbous, 98% of the Moon is Illuminated
Oct 10
Waxing Gibbous
Oct 11
Full
Oct 19
Last Quarter
Oct 26
New
Nov 2
First Quarter

Hourly Weather History & Observations

Time (CDT) Temp. Windchill Dew Point Humidity Pressure Visibility Wind Dir Wind Speed Gust Speed Precip Events Conditions
12:15 AM 47.5 °F - 46.0 °F 95% 30.25 in 10.0 mi Calm Calm - N/A   Clear
12:35 AM 47.1 °F - 45.7 °F 95% 30.25 in 10.0 mi Calm Calm - N/A   Clear
12:55 AM 47.5 °F - 46.0 °F 95% 30.24 in 10.0 mi Calm Calm - N/A   Clear
1:15 AM 47.5 °F - 46.0 °F 95% 30.24 in 10.0 mi Calm Calm - N/A   Clear
1:35 AM 47.3 °F - 45.7 °F 94% 30.24 in 10.0 mi Calm Calm - N/A   Clear
1:55 AM 44.6 °F - 43.2 °F 95% 30.24 in 7.0 mi Calm Calm - N/A   Clear
2:15 AM 43.2 °F - 42.1 °F 96% 30.24 in 7.0 mi Calm Calm - N/A   Clear
2:55 AM 42.6 °F - 41.5 °F 96% 30.23 in 10.0 mi Calm Calm - N/A   Clear
3:15 AM 42.4 °F - 41.4 °F 96% 30.22 in 10.0 mi Calm Calm - N/A   Clear
3:35 AM 42.4 °F 39.6 °F 41.4 °F 96% 30.22 in 10.0 mi NE 4.6 mph - N/A   Clear
4:15 AM 42.8 °F - 42.1 °F 97% 30.22 in 5.0 mi Calm Calm - N/A   Clear
4:35 AM 42.3 °F - 41.4 °F 97% 30.22 in 10.0 mi Calm Calm - N/A   Clear
4:55 AM 41.2 °F - 40.3 °F 97% 30.22 in 0.2 mi Calm Calm - N/A Fog Fog
5:15 AM 40.6 °F - 39.7 °F 97% 30.22 in 7.0 mi Calm Calm - N/A   Clear
5:35 AM 40.1 °F - 39.2 °F 97% 30.22 in 7.0 mi Calm Calm - N/A   Clear
6:15 AM 40.1 °F - 39.2 °F 97% 30.22 in 4.0 mi Calm Calm - N/A   Clear
6:35 AM 40.1 °F - 39.2 °F 97% 30.22 in 10.0 mi Calm Calm - N/A   Clear
6:55 AM 40.1 °F - 39.2 °F 97% 30.22 in 7.0 mi Calm Calm - N/A   Clear
7:15 AM 40.3 °F 38.2 °F 39.4 °F 97% 30.22 in 5.0 mi NE 3.5 mph - N/A   Clear
7:35 AM 41.0 °F - 40.3 °F 97% 30.22 in 4.0 mi Calm Calm - N/A   Clear
8:15 AM 43.9 °F - 43.0 °F 97% 30.21 in 5.0 mi Calm Calm - N/A   Clear
8:35 AM 48.4 °F - 47.5 °F 97% 30.21 in 5.0 mi Calm Calm - N/A   Clear
9:15 AM 56.3 °F - 51.8 °F 85% 30.20 in 10.0 mi SE 3.5 mph - N/A   Clear
9:35 AM 59.2 °F - 51.8 °F 77% 30.20 in 10.0 mi SE 4.6 mph - N/A   Clear
9:55 AM 61.3 °F - 52.3 °F 72% 30.19 in 10.0 mi SE 6.9 mph - N/A   Clear
10:15 AM 63.7 °F - 53.2 °F 69% 30.19 in 10.0 mi SE 5.8 mph - N/A   Clear
10:35 AM 66.4 °F - 54.0 °F 64% 30.18 in 10.0 mi SSE 5.8 mph - N/A   Clear
10:55 AM 69.1 °F - 53.8 °F 58% 30.18 in 10.0 mi SSE 5.8 mph - N/A   Clear
11:15 AM 70.2 °F - 53.1 °F 55% 30.17 in 10.0 mi SSE 6.9 mph - N/A   Clear
11:35 AM 70.7 °F - 51.8 °F 51% 30.15 in 10.0 mi SSE 4.6 mph - N/A   Clear
11:55 AM 72.5 °F - 52.7 °F 50% 30.15 in 10.0 mi SSE 8.1 mph - N/A   Clear
12:15 PM 73.8 °F - 52.9 °F 48% 30.14 in 10.0 mi SSE 9.2 mph - N/A   Clear
12:35 PM 74.1 °F - 52.9 °F 47% 30.13 in 10.0 mi SSE 8.1 mph - N/A   Clear
1:15 PM 75.2 °F - 52.5 °F 45% 30.11 in 10.0 mi SSE 10.4 mph 17.3 mph N/A   Clear
1:35 PM 75.2 °F - 51.3 °F 43% 30.10 in 10.0 mi SSE 12.7 mph 19.6 mph N/A   Clear
1:55 PM 75.2 °F - 50.5 °F 42% 30.10 in 10.0 mi SE 10.4 mph 18.4 mph N/A   Clear
2:15 PM 74.1 °F - 51.1 °F 44% 30.08 in 10.0 mi SSE 8.1 mph - N/A   Clear
2:35 PM 75.2 °F - 51.3 °F 43% 30.08 in 10.0 mi SE 11.5 mph 16.1 mph N/A   Clear
2:55 PM 75.2 °F - 49.6 °F 41% 30.07 in 10.0 mi South 10.4 mph 19.6 mph N/A   Clear
3:15 PM 75.2 °F - 49.3 °F 40% 30.06 in 10.0 mi SSE 3.5 mph - N/A   Clear
3:35 PM 75.2 °F - 49.1 °F 40% 30.06 in 10.0 mi SSE 10.4 mph - N/A   Clear
4:15 PM 75.2 °F - 50.4 °F 42% 30.05 in 10.0 mi SSE 8.1 mph - N/A   Clear
4:35 PM 74.8 °F - 49.6 °F 41% 30.04 in 10.0 mi SSE 9.2 mph - N/A   Clear
4:55 PM 72.1 °F - 48.6 °F 43% 30.04 in 10.0 mi South 5.8 mph - N/A   Clear
5:15 PM 70.3 °F - 48.9 °F 47% 30.03 in 10.0 mi South 4.6 mph - N/A   Clear
5:35 PM 70.2 °F - 50.2 °F 49% 30.03 in 10.0 mi South 3.5 mph - N/A   Clear
5:55 PM 70.2 °F - 51.6 °F 52% 30.03 in 10.0 mi SSE 3.5 mph - N/A   Scattered Clouds
6:15 PM 68.2 °F - 51.3 °F 55% 30.02 in 10.0 mi SSE 3.5 mph - N/A   Scattered Clouds
6:35 PM 66.9 °F - 51.1 °F 57% 30.02 in 10.0 mi SSE 3.5 mph - N/A   Scattered Clouds
6:55 PM 64.6 °F - 50.5 °F 60% 30.01 in 10.0 mi SE 3.5 mph - N/A   Clear
7:15 PM 63.1 °F - 50.4 °F 63% 30.02 in 10.0 mi SE 4.6 mph - N/A   Clear
7:35 PM 62.8 °F - 50.0 °F 63% 30.02 in 10.0 mi SE 4.6 mph - N/A   Clear
7:55 PM 61.5 °F - 50.0 °F 66% 30.02 in 10.0 mi SE 3.5 mph - N/A   Clear
8:35 PM 61.3 °F - 49.5 °F 65% 30.01 in 10.0 mi SSE 5.8 mph - N/A   Clear
8:55 PM 61.9 °F - 49.6 °F 64% 30.01 in 10.0 mi SSE 6.9 mph - N/A   Clear
9:15 PM 61.7 °F - 50.0 °F 65% 30.02 in 10.0 mi SSE 5.8 mph - N/A   Clear
9:35 PM 61.2 °F - 50.2 °F 67% 30.02 in 10.0 mi SSE 4.6 mph - N/A   Clear
9:55 PM 60.3 °F - 50.2 °F 69% 30.02 in 10.0 mi SSE 4.6 mph - N/A   Clear
10:15 PM 60.1 °F - 50.9 °F 72% 30.02 in 10.0 mi SE 5.8 mph - N/A   Clear
10:35 PM 60.1 °F - 50.9 °F 72% 30.02 in 10.0 mi SSE 5.8 mph - N/A   Clear
10:55 PM 60.1 °F - 51.1 °F 72% 30.02 in 10.0 mi SSE 3.5 mph - N/A   Clear
11:15 PM 60.1 °F - 51.4 °F 73% 30.02 in 10.0 mi Calm Calm - N/A   Clear
11:35 PM 59.2 °F - 50.5 °F 73% 30.02 in 10.0 mi Calm Calm - N/A   Clear
11:55 PM 57.6 °F - 50.2 °F 76% 30.01 in 10.0 mi Calm Calm - N/A   Clear